This is the latest recevied weather packets stored in our database for station/object KC3WWU. If no packets are shown the sender has not sent any weather packets the latest 10 day(s).
| Time | Temp. | Humidity | Pressure | Rain* | Wind** | Luminosity | Snow |
|---|---|---|---|---|---|---|---|
| 1777667586 | 8.33° C | 83% | 1008.8 hPa | 0 mm | - | 124 W/m² | - |
| 1777667283 | 8.33° C | 80% | 1009 hPa | 0 mm | - | 174 W/m² | - |
| 1777666979 | 8.89° C | 74% | 1008.7 hPa | 0 mm | - | 77 W/m² | - |
| 1777666676 | 9.44° C | 65% | 1008.6 hPa | 0 mm | - | 60 W/m² | - |
| 1777666373 | 9.44° C | 62% | 1008.5 hPa | 0 mm | - | 60 W/m² | - |
| 1777666070 | 9.44° C | 66% | 1008.5 hPa | 0 mm | - | 100 W/m² | - |
| 1777665767 | 10° C | 64% | 1008.8 hPa | 0 mm | - | 144 W/m² | - |
| 1777665464 | 10° C | 60% | 1008.9 hPa | 0 mm | - | 156 W/m² | - |
| 1777665160 | 10° C | 63% | 1008.6 hPa | 0 mm | - | 159 W/m² | - |
| 1777664857 | 9.44° C | 65% | 1009 hPa | 0 mm | - | 130 W/m² | - |
| 1777664553 | 10° C | 65% | 1008.7 hPa | 0 mm | - | 59 W/m² | - |
| 1777664249 | 9.44° C | 70% | 1008.8 hPa | 0 mm | - | 90 W/m² | - |
| 1777663948 | 10° C | 71% | 1008.7 hPa | 0 mm | - | 82 W/m² | - |
| 1777663645 | 10° C | 69% | 1008.6 hPa | 0 mm | - | 79 W/m² | - |
| 1777663342 | 10.56° C | 69% | 1008.5 hPa | 0 mm | - | 95 W/m² | - |
| 1777663039 | 10.56° C | 61% | 1008.6 hPa | 0 mm | - | 59 W/m² | - |
| 1777662736 | 10.56° C | 61% | 1008.4 hPa | 0 mm | - | 63 W/m² | - |
| 1777662432 | 10.56° C | 60% | 1008.2 hPa | 0 mm | - | 43 W/m² | - |
| 1777662128 | 10.56° C | 60% | 1008.5 hPa | 0 mm | - | 65 W/m² | - |
| 1777661824 | 11.11° C | 58% | 1008.7 hPa | 0 mm | - | 92 W/m² | - |
| 1777661520 | 11.11° C | 60% | 1008.5 hPa | 0 mm | - | 216 W/m² | - |
| 1777661216 | 10.56° C | 60% | 1008.6 hPa | 0 mm | - | 158 W/m² | - |
| 1777660916 | 11.11° C | 59% | 1008.4 hPa | 0 mm | - | 107 W/m² | - |
| 1777660613 | 11.11° C | 62% | 1008.6 hPa | 0 mm | - | 80 W/m² | - |
| 1777660310 | 11.11° C | 57% | 1008.6 hPa | 0 mm | - | 71 W/m² | - |
* Rain latest hour (hover to see other rain measurements)
** Current wind speed in m/s (hover to see current wind gust speed)